Location: Mesa
(33.4220°N, 111.8220°W)
Time: 16:53:16
(UTC-07:00)

N. Korean satellite - Pass Details

Date: 18 November 2019
Orbit: 456 x 506 km, 97.2° (Epoch: 06 December)

Event Time Altitude Azimuth Distance (km) Brightness Sun altitude
Rises 05:53:35 0° 19° (NNE) 2,604 10.3 -14.2°
Reaches altitude 10° 05:55:46 10° 26° (NNE) 1,710 9.5 -13.8°
Maximum altitude 05:59:17 42° 99° (E) 713 8.0 -13.1°
Drops below altitude 10° 06:02:44 10° 171° (S) 1,676 9.6 -12.4°
Sets 06:04:51 0° 178° (S) 2,544 10.4 -12.0°
